User: anonymous   Login
Location: Unspecified
(0.0000°N, 0.0000°E)
Time: 00:21:21
(UTC+02:00)
Language:

CZ-2C R/B - Orbit

View from above orbital plane
View from above orbital plane
View from above satellite
View from above satellite

Ground track
Ground track

The orbit data is extracted from the following two-line orbital elements,

1 28480U 04046B   16205.92592148 +.00000031 +00000-0 +26768-4 0  9997
2 28480 098.1859 317.4092 0143313 113.1842 359.4286 14.25601491607446
Epoch (UTC): 23 July 2016 22:13:19
Eccentricity: 0.0143313
inclination: 98.1859°
perigee height: 703 km
apogee height: 909 km
right ascension of ascending node: 317.4092°
argument of perigee: 113.1842°
revolutions per day: 14.25601491
mean anomaly at epoch: 359.4286°
orbit number at epoch: 60744

The dashed part of the orbit path shows where the satellite is in the earth's shadow,  

DLR